User: anonymous   Login
Location: South Tamworth Observatory
(43.8246°N, 71.3026°W)
Time: 01:57:15
(UTC-04:00)
Language:

Cosmos 1844 - Orbit

View from above orbital plane
View from above orbital plane
View from above satellite
View from above satellite

Ground track
Ground track

The orbit data is extracted from the following two-line orbital elements,

1 17973U 87041A   14298.18240501 -.00000228  00000-0 -94178-4 0  8684
2 17973 070.8966 149.3565 0029360 137.9075 357.1331 14.13943655416599
Epoch (UTC): 25 October 2014 04:22:39
Eccentricity: 0.0029360
inclination: 70.8966°
perigee height: 825 km
apogee height: 867 km
right ascension of ascending node: 149.3565°
argument of perigee: 137.9075°
revolutions per day: 14.13943655
mean anomaly at epoch: 357.1331°
orbit number at epoch: 41659

The dashed part of the orbit path shows where the satellite is in the earth's shadow,  

DLR